Tracking 26492 objects as of 8-Dec-2022
HD Live streaming from Space Station
objects crossing your sky now

DTUSAT-2

Track DTUSAT-2 now!
10-day predictions
DTUSAT-2 is classified as:


NORAD ID: 40030
Int'l Code: 2014-033W
Perigee: 595.1 km
Apogee: 609.9 km
Inclination: 98.0 °
Period: 96.6 minutes
Semi major axis: 6973 km
RCS: Unknown
Launch date: June 19, 2014
Source: Denmark (DEN)
Launch site: Orenburg, Russia (OREN)

Uplink (MHz): 1268.900
Downlink (MHz): 2401.835
Beacon (MHz): 2401.860
Mode: 9k6CPFSK/1k2 19k2 38k4MSK CW
Call sign: OZ2DTU
Status: Active

aabbcc
Your satellite tracking list
Your tracking list is empty




NASA's NSSDC Master Catalog

Two Line Element Set (TLE):
1 40030U 14033W   22341.80306246  .00003108  00000-0  32138-3 0  9991
2 40030  97.9512 275.4423 0010602 196.3641 163.7236 14.90820852459463
Source of the keplerian elements: AMSAT